TIANZHOU-10

Last updated on Fri Sep 04 2026 00:02:05 GMT+0000 (Coordinated Universal Time)

1 69049U 26102A 26246.57143724 .00011967 00000+0 15026-3 0 9992 2 69049 41.4679 206.1568 0002183 255.5702 104.4894 15.59545974305944
UTC large
Height (km)
Speed (km/s)
/
Latitude / Longitude
Inclination (degrees)
Orbital Period (minutes)
Azimuth
Elevation
Range (km)
Doppler Factor

Next 0 passes for location: London (51.5072 / 0.1276)

No passes found over London.
TIANZHOU-10